Regional Weather Roundup
Issued by NWS

Home | Current Version | Previous Version | Graphics & Text | Print | Product List | Glossary On
Versions: 1 2 3 4 5 6 7 8 9 10 11 12 13 14 15 16 17 18 19 20 21 22 23 24 25 26 27 28 29 30 31 32 33 34 35 36 37 38 39 40 41 42 43 44 45 46 47 48 49 50
297
ASUS43 KDMX 201006
RWRIA

WEATHER ROUNDUP FOR IOWA
NATIONAL WEATHER SERVICE DES MOINES IA
400 AM CST MON FEB 20 2017

NOTE: "FAIR" INDICATES FEW OR NO CLOUDS BELOW 12,000 FEET WITH NO
SIGNIFICANT WEATHER AND/OR OBSTRUCTIONS TO VISIBILITY.

* - THESE STATIONS ARE NOT NWS STATIONS...THUS NOT UNDER NWS
QUALITY CONTROL.  THEY ALSO DO NOT REPORT WEATHER SUCH
AS PRECIPITATION OR FOG.

IAZ001>003-012>014-020>022-031>034-043>046-201100-
   NORTHWEST IOWA

CITY           SKY/WX    TMP DP  RH WIND       PRES   REMARKS
CARROLL *      CLOUDY    48  48 100 SE8       29.81F
CHEROKEE *     CLOUDY    51  51  99 SE6       29.77F
DENISON *      CLOUDY    55  52  88 SE16      29.76S
LE MARS *      MOCLDY    55  52  88 SE12G18   29.73F
SHELDON *      CLOUDY    54  54 100 S17       29.72F
SIOUX CITY     CLOUDY    56  52  86 SE14      29.72F
SPENCER        CLOUDY    51  48  89 SE14      29.78R
STORM LAKE *   CLOUDY    50  48  93 SE13G18   29.79F
$$

IAZ055>058-069>071-079>083-090>094-201100-
   SOUTHWEST IOWA

CITY           SKY/WX    TMP DP  RH WIND       PRES   REMARKS
ATLANTIC *     CLOUDY    57  52  82 VRB6G14   29.80F
CLARINDA *       N/A     61  55  82 S10         N/A
COUNCIL BLFS * CLOUDY    57  57 100 SE17      29.76F
CRESTON *      CLOUDY    55  52  88 SE9       29.85S
HARLAN  *      CLOUDY    57  57 100 S9        29.81F
LAMONI         CLOUDY    58  53  84 S10       29.87S
RED OAK *      CLOUDY    59  54  82 S9        29.79F
SHENANDOAH *   CLOUDY    59  55  88 S14       29.79F
$$

IAZ047>049-059>061-072>074-084-201100-
   CENTRAL IOWA

CITY           SKY/WX    TMP DP  RH WIND       PRES   REMARKS
AMES           CLOUDY    52  48  86 SE6       29.86F
ANKENY *       CLOUDY    55  48  76 SE8       29.87F
BOONE *        CLOUDY    50  48  93 SE12      29.84S
CHARITON *     CLOUDY    57  52  82 S13       29.88S
DES MOINES     CLOUDY    58  49  72 SE8       29.86F
GRINNELL*      CLOUDY    50  46  87 E9        29.91F
KNOXVILLE *    CLOUDY    57  48  72 SE9       29.87F
MARSHALLTOWN   MOCLDY    51  47  86 SE12      29.89F
NEWTON *       CLOUDY    52  48  87 SE13      29.88F
PELLA *        CLOUDY    55  49  79 SE8       29.90F
PERRY *          N/A     51  46  85 SE9       29.84S
$$

IAZ004>006-015-016-023>025-035-036-201100-
   NORTH CENTRAL IOWA

CITY           SKY/WX    TMP DP  RH WIND       PRES   REMARKS
ALGONA *       CLOUDY    52  48  87 SE17G24   29.82S
CLARION *      CLOUDY    50  50 100 SE17      29.85S
ESTHERVILLE    MOCLDY    48  46  93 S16       29.79S
FORT DODGE *   CLOUDY    52  45  76 SE8       29.84F
MASON CITY     CLOUDY    47  43  86 SE12      29.86F
FOREST CITY *    N/A     46  43  87 SE9       29.85F
IOWA FALLS *     N/A     49  46  86 SE7       29.88F
$$

IAZ007>011-017>019-026>030-037>042-050>054-066-201100-
   NORTHEAST IOWA

CITY           SKY/WX    TMP DP  RH WIND       PRES   REMARKS
CEDAR RAPIDS   PTCLDY    51  49  92 SE9       29.94F
CHARLES CITY * MOCLDY    48  48 100 SE12      29.90F
CLINTON *      MOCLDY    49  46  90 SE9       30.02S FOG
DECORAH *      CLOUDY    48  45  87 SE13      29.93R
DUBUQUE        PTCLDY    49  45  86 SE14      29.99F
MONTICELLO *   CLOUDY    50  46  87 SE10      29.97F
OELWEIN *      CLOUDY    48  48 100 SE14      29.94F
WATERLOO       CLOUDY    52  46  80 SE12      29.91F
$$

IAZ064-065-067-068-078-201100-
   EAST CENTRAL IOWA

CITY           SKY/WX    TMP DP  RH WIND       PRES   REMARKS
DAVENPORT      CLOUDY    50  47  89 SE13      30.00F
IOWA CITY      CLOUDY    50  46  86 SE6       29.98S
MUSCATINE *    PTCLDY    52  48  87 SE7       29.99R
QUAD CITIES    PTCLDY    49  45  86 E5        30.00F FOG
$$

IAZ062-063-075>077-085>089-095>099-201100-
   SOUTHEAST IOWA

CITY           SKY/WX    TMP DP  RH WIND       PRES   REMARKS
BURLINGTON     PTCLDY    54  51  90 SE13      29.98S
FAIRFIELD *    CLOUDY    54  48  82 SE8G14    29.94S
KEOKUK *       PTCLDY    52  48  87 SE7       29.97F
OTTUMWA        PTCLDY    57  52  83 S13       29.91F
WASHINGTON *   CLOUDY    50  50 100 SE9       29.97R FOG
$$

ABBREVIATIONS USED IN REMARKS
   TC - TEMPERATURES IN CELSIUS
  WCI - WIND CHILL INDEX
   HX - HEAT INDEX
  VSB - VISIBILITY
$$





USA.gov is the U.S. government's official web portal to all federal, state and local government web resources and services.